Regional Weather Roundup
Issued by NWS Jackson, KY

Home | Current Version | Previous Version | Graphics & Text | Print | Product List | Glossary On
Versions: 1 2 3 4 5 6 7 8 9 10 11 12 13 14 15 16 17 18 19 20 21 22 23 24 25 26 27
000
ASUS43 KJKL 200610
RWRJKL

EAST KENTUCKY HOURLY WEATHER ROUNDUP
NATIONAL WEATHER SERVICE JACKSON KY
100 AM EST TUE FEB 20 2018

NOTE: "FAIR" INDICATES FEW OR NO CLOUDS BELOW 12,000 FEET WITH
NO SIGNIFICANT WEATHER AND/OR OBSTRUCTIONS TO VISIBILITY.

* THESE REPORTS ARE NOT UNDER NWS QUALITY CONTROL AND MAY NOT
  REPORT WEATHER SUCH AS PRECIPITATION AND FOG.

KYZ079-080-083-085-087-088-110-112-115-119-120-200700
...EASTERN KENTUCKY...

CITY           SKY/WX    TMP DP  RH WIND       PRES   REMARKS
JACKSON        MOCLDY    65  53  65 S9G18     30.22R
6HR MIN TEMP:  63; 6HR MAX TEMP:  67;

LONDON           N/A     64  54  69 S6        30.22S
6HR MIN TEMP:  62; 6HR MAX TEMP:  65;

SOMERSET*      MOCLDY    63  54  72 MISG      30.22S
WILLIAMSBURG*    N/A     63  55  77 SE7       30.23S
MIDDLESBORO*     N/A     63  55  77 S8        30.27S
6HR MIN TEMP:  57; 6HR MAX TEMP:  66;

HARLAN APT*      N/A     64  50  59 SE5       30.27S
PIKE CO APT*     N/A     62  52  70 S9        30.25R
BIG SANDY APT*   N/A     64  52  67 S8        30.23S
6HR MIN TEMP:  63; 6HR MAX TEMP:  69;

MOREHEAD APT*    N/A     64  54  68 S12       30.20S
ASHLAND*         N/A     60  52  74 VRB5      30.18S
$$

KYZ035-036-041-042-044-050-067-078-099-200700
...CENTRAL KENTUCKY...

CITY           SKY/WX    TMP DP  RH WIND       PRES   REMARKS
MT STERLING*     N/A     63  55  77 SW10      30.19S
FLEMING/MASON* MOCLDY    60  55  81 S9        30.17S
DANVILLE*        N/A     61  54  77 S7        30.19R
LEXINGTON        N/A     62  55  77 S14       30.16R
6HR MIN TEMP:  62; 6HR MAX TEMP:  68;

FRANKFORT        N/A     63  54  72 S10       30.12S
6HR MIN TEMP:  63; 6HR MAX TEMP:  69;

LOUISVILLE     CLOUDY    68  56  65 S14G23    30.10R
6HR MIN TEMP:  67; 6HR MAX TEMP:  72;

LEBANON*         N/A     64  55  72 S15G22    30.15S
GLASGOW*         N/A     64  56  77 S10       30.16S
BOWLING GREEN    N/A     67  56  67 S14G22    30.14R
6HR MIN TEMP:  66; 6HR MAX TEMP:  70;

$$

KYZ091>093-OHZ055-061-077-WVZ005-015-034-035-042-200700
...SOUTHERN OHIO/WEST VIRGINIA...

CITY           SKY/WX    TMP DP  RH WIND       PRES   REMARKS
COVINGTON      MOCLDY    62  56  80 S12       30.10R
COLUMBUS         N/A     62  53  72 S9        30.10S
DAYTON         MOCLDY    62  56  80 S17G26    30.06S
WILMINGTON       N/A     59  55  87 S12       30.11R
HUNTINGTON       N/A     65  52  62 S9        30.19S
CHARLESTON     MOCLDY    65  53  65 S8        30.21S
BECKLEY          N/A     57  51  80 SE9       30.30S
BLUEFIELD        N/A     56  47  71 S7        30.34S
LOGAN CO APT*    N/A     64  54  68 S9G15     30.25S
$$

VAZ002-007-008-TNZ017-027-036-066-071-200700
...SOUTHWEST VIRGINIA/EAST TENNESSEE...

CITY           SKY/WX    TMP DP  RH WIND       PRES   REMARKS
WISE*            N/A     61  52  72 S15G23    30.31S
JONESVILLE*      N/A     52  52 100 CALM      30.30S
ABINGDON*        N/A     58  52  82 CALM      30.32S
BRISTOL        MOCLDY    53  51  93 CALM      30.31S
SEVIERVILLE*   CLEAR     52  50  93 CALM      30.27S
KNOXVILLE        N/A     63  54  72 S3        30.26S
LAFOLLETTE*    CLEAR     66  55  68 S10G24    30.29S
OAK RIDGE        N/A     57  57 100 CALM      30.28S
CROSSVILLE       N/A     59  54  83 S9G18     30.28R
NASHVILLE      MOCLDY    68  55  63 S17       30.16R
$$

...KEY TO REMARKS...
VSB - VISIBILITY IN MILES
WCI - WIND CHILL INDEX
HX  - HEAT INDEX

$$




USA.gov is the U.S. government's official web portal to all federal, state and local government web resources and services.